User: anonymous   Login
Location: *
(44.3925°N, 5.4708°E)
Time: 03:14:53
(UTC+00:00)
Language:

HJ-1C - Orbit

View from above orbital plane
View from above orbital plane
View from above satellite
View from above satellite

Ground track
Ground track

The orbit data is extracted from the following two-line orbital elements,

1 38997U 12064A   19320.85210057  .00001836  00000-0  45633-4 0  9995
2 38997  97.1761 349.8314 0011689  66.7992  38.2401 15.41533437392878
Epoch (UTC): 16 November 2019 20:27:01
Eccentricity: 0.0011689
inclination: 97.1761°
perigee height: 433 km
apogee height: 449 km
right ascension of ascending node: 349.8314°
argument of perigee: 66.7992°
revolutions per day: 15.41533437
mean anomaly at epoch: 38.2401°
orbit number at epoch: 39287

The dashed part of the orbit path shows where the satellite is in the earth's shadow,  

DLR